Location: Mahannah Oil Field
(37.4664°N, 96.6003°W)
Time: 09:52:47
(UTC+00:00)

Tiros 1 - Visible Passes

Search period start: 24 January 2021 00:00
Search period end: 03 February 2021 00:00
Orbit: 630 x 663 km, 48.4° (Epoch: 24 January)

Date Brightness Start Highest point End Pass type
(mag) Time Alt. Az. Time Alt. Az. Time Alt. Az.
24 Jan 8.4 01:41:06 10° W 01:45:11 30° NNW 01:45:44 29° N visible
25 Jan 7.7 00:24:10 10° WSW 00:28:43 53° NNW 00:33:04 11° NE visible
25 Jan 9.1 02:07:59 10° WNW 02:10:44 21° NNW 02:10:44 21° NNW visible
26 Jan 8.4 00:50:49 10° W 00:54:59 31° NNW 00:58:02 16° NE visible
26 Jan 9.7 02:34:43 10° NW 02:35:42 14° NW 02:35:42 14° NW visible
27 Jan 8.7 01:17:42 10° WNW 01:21:25 23° N 01:22:58 20° NNE visible
28 Jan 8.9 01:44:29 10° NW 01:47:54 21° N 01:47:54 21° N visible
29 Jan 8.7 00:27:25 10° WNW 00:31:13 24° NNW 00:34:57 10° NE visible
29 Jan 9.2 02:10:52 10° NW 02:12:50 19° NNW 02:12:50 19° NNW visible
30 Jan 8.8 00:54:14 10° NW 00:57:45 21° N 01:00:07 15° NE visible
30 Jan 9.7 02:36:54 10° NW 02:37:46 14° NW 02:37:46 14° NW visible
31 Jan 8.6 01:20:40 10° NW 01:24:19 22° N 01:25:04 21° NNE visible
01 Feb 8.4 01:46:44 10° NW 01:50:04 28° N 01:50:04 28° N visible
02 Feb 8.7 00:30:27 10° NW 00:34:05 22° N 00:37:27 11° ENE visible
02 Feb 8.6 02:12:38 10° NW 02:15:08 29° NNW 02:15:08 29° NNW visible
